Regional Weather Roundup
Issued by NWS Sterling, VA

Home | Current Version | Previous Version | Graphics & Text | Print | Product List | Glossary On
Versions: 1 2 3 4 5 6 7 8 9 10 11 12 13 14 15 16 17 18 19 20 21 22 23 24 25 26 27 28 29 30 31 32 33 34 35 36 37 38 39 40 41 42 43 44 45 46 47 48 49 50
000
ASUS41 KLWX 240410
RWRLWX

REGIONAL WEATHER ROUNDUP
NATIONAL WEATHER SERVICE BALTIMORE MD/WASHINGTON DC
1200 AM EDT SUN MAY 24 2015

Note: "FAIR" indicates few or no clouds below 12,000 feet
with no significant weather and/or obstructions to visibility.
 TC=TEMPERATURE CELSIUS

 * =Non NWS site. Station does not report precipitation (e.g. rain,
    snow, etc.), thunder, or fog.

DCZ001-MDZ009-015-VAZ040>042-051-053>054-240500-
WASHINGTON METRO

CITY           SKY/WX    TMP DP  RH WIND       PRES   REMARKS
WASHINGTON NAT CLEAR     63  47  55 S9        30.40R
DULLES         CLEAR     59  45  59 S7        30.38S
ANDREWS AFB    CLEAR     55  45  70 S7        30.38S
FT BELVOIR     CLEAR     53  48  83 CALM      30.39S
QUANTICO       CLEAR     62  49  62 S9        30.40S
COLLEGE PARK*  CLEAR     54  46  76 CALM      30.39R
LEESBURG*      CLEAR     55  48  76 SW6       30.39S
MANASSAS*        N/A    N/A N/A N/A MISG        N/A
GAITHERSBURG*  CLEAR     54  43  66 SE6       30.42S

$$

MDZ006>007-011-014-240500-
BALTIMORE METRO

CITY           SKY/WX    TMP DP  RH WIND       PRES   REMARKS
BWI AIRPORT    CLEAR     52  44  74 CALM      30.39R
MD SCIENCE CTR   N/A     61  44  53 MISG      30.40R
MARTIN STATE   CLEAR     54  48  82 CALM      30.40S
ANNAPOLIS      CLEAR     60  42  51 CALM      30.38F
FORT MEADE*    CLEAR     46  45  93 CALM      30.41S

$$

MDZ012-015-019>023-240500-
MARYLAND EASTERN SHORE

CITY           SKY/WX    TMP DP  RH WIND       PRES   REMARKS
OCEAN CITY     CLEAR     57  50  77 S5        30.42S
SALISBURY      CLEAR     49  46  90 CALM      30.41F
BAY BRIDGE AP*   N/A    N/A N/A N/A S6        30.39S
EASTON*        CLEAR     57  43  60 CALM      30.43F

$$

MDZ017>025-240500-
SOUTHERN MARYLAND

CITY           SKY/WX    TMP DP  RH WIND       PRES   REMARKS
PATUXENT RIVER CLEAR     57  40  52 S5        30.40S
ST INIGOES     CLEAR     54  45  71 CALM      30.40S
LEONARDTOWN*   CLEAR     54  41  62 CALM      30.42S

$$

MDZ003>005-240500-
NORTH CENTRAL MARYLAND

CITY           SKY/WX    TMP DP  RH WIND       PRES   REMARKS
FREDERICK*     CLEAR     50  46  87 CALM      30.40S
HAGERSTOWN APT CLEAR     61  39  44 SE3       30.37R
WESTMINSTER*   PTCLDY    57  39  51 S3        30.39R

$$

MDZ501>502-240500-
WESTERN MARYLAND

CITY           SKY/WX    TMP DP  RH WIND       PRES   REMARKS
OAKLAND*       CLEAR     55  36  47 CALM      30.40S
CUMBERLAND*    CLEAR     57  39  51 N5        30.40S

$$

VAZ025>031-240500-
SHENANDOAH VALLEY

CITY           SKY/WX    TMP DP  RH WIND       PRES   REMARKS
WINCHESTER*    CLEAR     55  43  62 CALM      30.36F
FRONT ROYAL*   FAIR      54  46  76 CALM      30.36S
LURAY*         FAIR      55  52  88 CALM      30.38S
NEW MARKET*    FAIR      54  49  82 CALM      30.37S
STAUNTON*      CLEAR     53  49  85 CALM      30.40S
WAYNESBORO*    FAIR      56  49  76 S8        30.39S

$$

WVZ021-048>050-054>055-240500-
EASTERN WEST VIRGINIA PANHANDLE

CITY           SKY/WX    TMP DP  RH WIND       PRES   REMARKS
MARTINSBURG    CLEAR     53  46  77 CALM      30.37S
PETERSBURG*    CLEAR     52  44  75 CALM      30.39S

$$

VAZ036>039-050-240500-
CENTRAL FOOTHILLS

CITY           SKY/WX    TMP DP  RH WIND       PRES   REMARKS
CHARLOTTESVILL CLEAR     58  49  72 N3        30.38S
CULPEPER*      CLEAR     50  47  88 CALM      30.40R
ORANGE*        CLOUDY    55  52  88 CALM      30.40R
GORDONSVILLE*  MOCLDY    53  51  90 CALM      30.38S
WARRENTON*     FAIR      52  50  93 CALM      30.38S

$$

VAZ055>057-240500-
NORTH AND CENTRAL PIEDMONT

CITY           SKY/WX    TMP DP  RH WIND       PRES   REMARKS
FREDERICKSBRG* PTCLDY    61  49  65 SE3       30.39R
STAFFORD*      CLEAR     51  47  86 CALM      30.43S

$$

NCZ024-NYZ072-PAZ021-071-VAZ022-071-240500-
OTHER REGIONAL OBSERVATIONS

CITY           SKY/WX    TMP DP  RH WIND       PRES   REMARKS
NEW YORK CITY  CLEAR     58  41  53 VRB3      30.38S
PHILADELPHIA   PTCLDY    58  46  64 S8        30.39S
PITTSBURGH     CLEAR     54  42  64 CALM      30.34S
ROANOKE        CLEAR     60  50  69 CALM      30.40S
RICHMOND       PTCLDY    58  50  75 SE5       30.40S
RALEIGH        PTCLDY    65  50  58 SE7       30.39S

$$

ANZ530>537-240500-
MARINE OBSERVATIONS

STATION/POSITION TIME  TEMP    WIND        PRES
                       AIR SEA DIR/SP/G
                 (UTC) (F)     (DEG/KT/KT) (MB)
THOMAS PT LIGHT  0400   64 65  200/ 13/ 13 1029.7R
BALT KEY BRIDGE  0300   63     170/ 10/ 11 1028.6R
LEWISETTA        0300   62 69              1029.2S
SOLOMONS ISLAND  0300      69                N/A
PINEY POINT      0300          180/  9/ 10   N/A

$$



USA.gov is the U.S. government's official web portal to all federal, state and local government web resources and services.